Temperature
19 19 17 16 15 15 15 15 14 14 14 14 13 12 12 12 12 11 11 11 11 11 11 12 12 12 13 13 13 12 12 12 13 13 14 14 14 13 13 13 13 12 12
20 19 17 16 15 15 15 14 14 14 13 13 12 11 11 11 11 11 11 11 11 10 11 11 12 12 12 12 12 12 12 12 12 13 14 14 13 13 13 13 13 12 12
19 19 17 16 15 15 15 14 14 14 13 12 11 11 11 11 11 11 10 10 10 10 10 11 11 12 12 12 12 12 11 11 12 13 13 13 12 12 13 13 13 12 12
19 19 17 16 15 15 15 14 14 13 13 12 11 11 11 11 11 10 10 10 10 10 10 11 11 11 11 11 11 11 11 11 12 12 13 12 12 12 12 13 13 13 12
18 18 17 16 15 15 15 14 14 13 13 13 11 11 11 11 11 11 11 11 11 11 11 11 11 11 11 11 11 11 11 11 12 12 12 12 12 12 12 12 13 13 12
18 18 18 16 15 15 15 14 14 14 13 13 12 11 11 11 11 11 11 11 12 12 12 12 12 12 12 12 12 12 11 12 13 13 12 12 12 12 12 12 13 13 12
19 18 18 17 16 15 15 14 14 14 14 13 13 12 12 11 11 11 11 12 12 12 12 12 12 12 13 13 13 13 13 13 14 14 14 13 12 12 12 13 13 13 12
19 18 19 17 16 16 15 15 14 14 14 14 14 13 12 12 12 12 12 13 13 13 13 13 13 13 13 13 14 14 14 14 15 15 14 14 14 14 14 14 14 14 13
18 18 19 18 17 16 16 15 15 15 15 15 15 14 14 13 13 13 14 14 14 14 14 14 14 14 14 14 14 14 14 14 15 15 15 15 14 14 14 14 14 14 14
18 18 18 18 18 17 16 16 16 16 16 15 15 15 15 15 14 14 14 14 14 15 15 15 15 14 14 14 14 14 14 14 14 15 15 15 14 14 14 15 15 15 14
18 18 18 18 17 17 16 16 16 16 16 16 16 15 15 15 14 13 14 14 14 15 15 15 15 15 15 14 14 14 14 14 14 14 14 14 14 14 14 14 15 15 15
19 18 18 18 17 16 16 16 16 16 16 16 16 15 15 14 13 13 14 14 14 15 15 15 15 15 14 14 14 14 14 14 13 13 13 13 13 13 13 14 14 14 14
20 19 18 18 17 16 16 15 15 15 15 15 15 14 14 14 14 14 14 14 14 15 15 15 15 14 14 14 13 13 13 13 12 12 12 12 12 12 12 13 13 13 13
21 20 19 18 17 17 16 16 15 15 15 14 14 14 14 14 14 14 13 13 14 14 13 13 13 13 13 13 13 13 13 12 12 12 12 12 12 12 12 12 12 12 12
21 20 19 18 18 17 16 16 15 15 15 14 14 14 14 13 13 13 13 13 13 13 13 13 12 12 12 12 12 12 12 12 12 12 12 12 12 12 12 12 11 11 12
20 20 19 18 17 17 16 16 15 15 15 15 14 14 13 13 13 13 13 13 12 12 12 12 12 12 12 12 12 12 12 12 12 12 12 12 12 12 12 11 11 11 11
19 19 18 18 17 17 16 16 15 15 15 14 14 13 13 13 12 12 12 12 12 12 12 12 12 12 12 11 11 11 11 12 12 12 12 12 11 11 11 11 11 11 11
18 18 18 18 17 16 16 15 15 15 14 14 13 13 12 12 12 12 12 12 12 12 12 11 11 11 11 11 11 11 11 11 11 12 11 11 11 11 11 11 11 11 10
17 17 18 18 17 16 15 15 15 14 14 13 13 12 12 12 12 12 12 12 11 11 11 11 11 11 11 10 10 10 10 11 11 11 11 11 11 11 11 11 11 10 10
16 16 16 17 16 15 14 14 14 13 13 13 12 12 12 12 12 11 11 11 11 11 11 11 10 10 10 9 9 9 9 10 10 10 10 10 11 10 10 10 10 10 10
15 15 15 15 15 14 14 13 13 13 12 12 12 12 12 12 11 11 11 11 11 10 10 9 9 9 9 8 8 8 8 8 9 9 9 9 9 9 9 9 8 8 9
14 14 14 13 13 13 13 13 12 12 12 12 11 11 11 11 11 11 11 10 10 9 9 8 8 8 7 7 6 5 5 6 8 7 7 7 7 7 7 7 7 7 7
13 13 13 13 13 13 13 12 12 12 11 11 11 11 11 11 10 10 10 9 9 8 8 7 7 6 6 6 5 4 4 4 3 4 5 5 5 5 5 5 5 5 5
13 13 13 13 12 12 12 12 12 12 11 11 11 10 10 10 10 10 9 9 8 7 7 6 6 5 5 5 5 4 3 3 2 2 2 3 3 3 3 3 3 3 3
12 12 12 12 12 12 12 12 12 11 11 10 10 10 10 9 9 9 8 8 7 6 6 6 5 5 4 4 4 3 3 2 2 1 1 1 1 1 1 1 1 1 1
12 12 12 12 12 12 12 11 11 11 10 10 10 9 9 9 8 8 7 7 6 6 5 5 5 4 4 3 3 2 1 0 0 0 -0 -0 -0 -0 -0 -0 -0 -0 0
Wind_Speed
11 16 20 19 18 16 15 13 11 9 8 7 6 6 7 7 7 7 6 7 7 8 8 7 7 6 4 4 6 6 6 5 5 5 6 6 5 4 5 5 6 6 1
15 18 19 18 17 16 15 13 11 9 7 6 6 6 6 5 6 6 7 7 7 7 8 9 10 9 6 5 5 5 4 3 3 5 7 8 8 5 1 3 5 6 3
16 18 18 18 17 15 14 13 11 8 6 5 5 6 5 5 6 6 6 7 7 7 8 9 10 10 9 7 5 4 3 3 4 7 10 11 11 10 5 1 4 4 4
14 17 16 17 16 15 14 12 10 8 6 4 4 5 5 5 5 5 6 6 7 7 7 7 8 8 9 8 6 4 4 5 5 8 11 12 6 7 5 2 4 5 4
10 15 18 18 15 14 14 12 10 8 6 5 3 4 3 4 4 4 5 5 5 5 5 6 6 6 6 6 6 6 6 6 7 9 12 13 7 4 4 4 6 7 7
10 16 18 17 15 14 14 12 10 8 6 5 4 3 2 2 2 3 4 4 4 3 3 4 4 4 5 5 6 7 8 7 7 11 11 11 7 6 6 6 7 9 9
10 15 17 17 15 14 14 13 10 8 6 5 4 2 1 1 2 2 4 3 1 2 2 3 4 4 4 5 6 8 8 8 8 10 11 11 9 9 9 9 10 12 12
10 13 16 15 14 13 14 13 11 9 7 5 4 2 1 1 2 2 3 2 1 2 3 4 5 6 7 7 8 9 10 9 10 9 11 11 13 14 14 13 14 15 15
10 12 12 13 12 12 13 13 12 9 7 5 4 2 1 2 1 2 4 4 4 4 5 6 8 9 10 10 11 12 12 12 10 10 13 13 14 15 15 15 16 17 18
8 9 13 13 14 13 13 13 13 11 9 7 5 4 4 5 7 9 9 9 7 6 7 9 10 11 12 12 14 15 15 13 12 14 14 15 18 18 17 17 18 19 20
6 6 8 12 11 13 14 15 14 12 11 9 9 11 9 9 13 12 13 8 8 7 9 11 12 13 14 14 17 20 17 11 13 13 13 15 16 16 17 18 19 21 22
8 7 6 7 9 8 9 13 12 12 12 12 13 14 12 12 6 4 9 9 9 10 11 13 15 15 14 12 15 17 11 13 13 11 13 17 18 19 19 20 21 22 23
12 10 8 7 7 7 5 6 6 8 10 13 12 11 11 6 3 3 5 7 9 11 10 11 11 11 11 10 8 6 9 11 8 9 12 15 17 20 21 21 22 23 25
9 12 10 8 7 7 6 4 3 3 3 4 5 3 3 2 1 2 1 2 3 4 5 5 4 7 8 8 8 6 7 6 7 9 11 15 17 20 22 23 24 25 26
4 9 11 9 8 7 5 5 4 4 4 4 5 2 2 1 1 0 1 1 2 3 3 2 3 5 6 5 6 6 7 7 8 10 11 15 16 19 23 24 25 26 26
0 5 7 8 7 7 6 5 4 2 3 2 5 4 3 2 2 3 4 3 3 4 4 3 4 5 5 5 6 7 8 7 7 9 11 13 16 17 20 23 24 25 26
5 3 3 4 5 6 6 7 4 3 4 3 5 6 5 4 3 2 3 4 4 6 7 5 5 5 6 6 7 7 7 7 7 8 11 11 13 16 18 21 22 23 24
1 1 2 2 2 4 5 6 5 4 5 6 7 8 9 9 8 5 6 6 7 7 5 6 5 6 7 7 7 7 7 7 10 8 8 10 11 11 13 15 17 20 23
2 3 4 4 3 5 8 8 8 8 9 9 10 10 12 14 14 8 6 6 8 5 6 7 6 6 7 7 7 7 7 8 9 10 10 7 8 9 10 13 16 18 19
3 5 6 7 7 9 9 10 10 11 10 8 8 10 13 13 14 10 5 7 7 6 6 7 7 7 6 7 10 9 9 10 9 6 8 9 9 12 12 13 13 15 18
6 7 8 9 9 9 8 8 8 8 8 7 7 11 13 13 13 9 6 7 7 6 7 8 6 8 7 7 6 7 8 8 7 8 12 12 11 9 12 12 11 12 13
8 8 9 10 11 10 9 8 8 8 7 7 5 8 12 13 12 10 7 7 7 6 8 7 6 6 6 7 6 6 5 6 5 12 11 8 10 10 10 11 12 12 12
9 9 10 11 12 12 12 10 9 7 6 6 6 6 8 12 12 10 8 6 7 6 6 7 7 7 6 6 6 4 5 5 10 6 7 11 9 9 11 10 11 10 14
9 9 10 11 11 10 9 9 9 8 7 6 5 5 7 10 10 10 8 7 6 6 6 7 7 6 6 6 6 4 5 8 6 7 6 7 11 12 11 13 11 10 14
9 9 9 11 11 11 10 10 10 8 6 5 6 7 7 6 8 9 8 6 6 5 6 6 6 6 5 5 5 6 8 7 7 10 13 9 8 8 9 10 11 11 11
9 9 10 11 11 11 11 10 10 10 9 8 7 6 5 5 6 7 7 6 5 5 5 5 5 7 6 6 6 6 7 6 8 9 15 16 13 8 9 8 10 10 10
Wind_Direction
122 136 148 148 147 144 139 133 127 118 107 99 95 90 75 66 68 60 44 36 30 23 18 17 14 16 36 73 90 79 65 55 41 17 354 333 320 352 16 15 349 327 143
125 138 148 151 151 148 143 138 132 123 113 105 101 94 80 70 69 58 46 38 34 26 22 21 20 20 30 57 77 75 65 51 25 351 325 300 265 236 239 357 347 359 26
123 136 148 152 154 151 146 141 135 128 118 111 106 101 90 79 73 62 49 39 33 26 19 14 14 20 30 47 55 56 41 14 343 328 312 290 254 220 203 245 310 323 345
126 139 151 152 156 153 149 144 138 131 122 117 113 111 99 91 80 68 58 45 35 29 22 12 10 15 25 31 32 21 2 346 332 317 304 296 305 182 194 250 277 281 289
121 136 143 151 156 155 152 147 142 133 125 123 122 113 110 106 99 82 72 57 44 32 19 11 7 6 7 6 359 345 334 334 332 302 286 288 296 229 233 257 272 276 274
128 126 141 149 156 157 155 151 145 137 132 132 129 113 111 135 121 102 96 84 56 33 15 3 355 351 343 332 322 314 311 318 319 296 295 296 292 273 265 259 263 270 268
126 127 142 148 156 160 160 155 150 144 140 139 142 142 125 156 139 113 130 124 80 9 345 331 322 313 307 300 295 292 292 298 284 275 280 285 286 274 268 265 260 264 267
119 127 140 149 156 162 163 161 160 155 151 151 159 171 160 89 102 118 157 166 221 301 311 310 306 294 289 282 281 281 279 278 282 287 283 273 265 262 262 262 261 261 264
127 133 145 153 158 165 168 168 169 165 162 166 178 176 115 113 151 183 195 213 242 273 288 293 294 292 289 286 284 281 274 267 264 269 272 268 260 257 259 259 259 260 260
143 152 155 162 168 172 176 179 176 174 174 181 193 194 188 213 230 228 221 218 226 251 277 284 285 287 288 289 285 278 269 264 257 258 255 255 255 254 256 258 260 261 261
162 169 166 164 172 177 180 181 178 181 190 195 207 216 215 231 236 225 220 207 211 244 268 276 278 279 280 281 275 267 261 253 251 254 251 249 252 254 256 257 259 261 261
181 189 184 176 164 170 172 164 180 187 193 202 217 206 212 227 233 136 168 205 230 251 263 268 268 271 273 266 266 261 243 242 246 250 248 245 250 256 259 261 261 262 262
181 183 186 188 169 164 147 160 178 188 183 198 217 191 194 203 169 182 192 213 230 241 245 257 255 250 245 246 253 244 231 241 247 256 262 261 255 260 262 264 265 265 264
172 174 181 184 176 174 155 166 172 170 168 176 182 182 169 138 122 251 221 231 235 242 229 246 255 263 262 265 269 263 260 261 261 263 266 269 259 260 266 268 268 269 268
191 163 171 178 179 174 165 159 175 176 157 162 142 140 100 101 219 353 319 296 284 291 290 277 281 295 304 304 301 305 310 302 292 284 279 275 267 259 268 273 273 273 273
165 153 157 169 183 172 159 155 177 167 125 108 120 118 84 44 44 24 347 345 334 328 319 317 315 314 309 310 314 311 303 298 299 304 302 297 292 278 273 279 281 280 280
6 19 109 152 169 170 165 159 155 147 121 101 88 80 68 49 51 33 10 6 352 357 359 1 352 344 337 333 322 317 318 314 305 299 295 291 287 283 276 278 282 285 285
1 2 80 110 147 154 135 123 113 91 84 77 69 65 56 46 53 51 38 21 13 21 18 7 6 356 342 333 323 317 312 302 294 287 290 290 287 285 285 284 284 287 288
153 137 123 133 143 119 103 91 85 75 67 65 60 56 54 47 47 51 44 26 15 22 17 8 6 357 338 332 327 319 317 307 299 300 300 305 315 321 323 320 314 303 296
72 104 114 112 109 101 95 88 80 74 69 65 62 59 56 52 45 39 44 30 16 21 18 12 5 354 342 343 332 324 310 300 297 315 340 344 335 331 335 334 331 327 324
77 83 97 105 102 99 100 99 94 87 79 68 63 61 58 53 48 43 33 32 20 20 23 12 5 350 344 340 330 321 299 303 318 358 343 330 324 331 335 331 327 325 321
85 81 82 86 88 90 93 94 97 97 89 82 68 59 60 54 47 46 34 29 20 20 21 8 8 355 342 345 338 330 326 317 354 340 305 310 323 319 321 323 319 314 313
78 80 88 87 91 95 97 101 105 99 95 86 79 70 61 58 47 42 37 28 20 24 17 3 13 1 339 334 351 341 332 309 316 278 332 315 309 327 320 312 306 312 317
85 83 90 96 101 105 108 109 107 103 100 98 100 96 84 69 54 36 35 28 22 25 18 360 5 347 345 334 334 338 308 302 305 305 302 306 316 310 310 314 318 318 316
91 85 84 84 82 81 82 86 93 95 98 89 80 74 82 76 61 35 28 23 25 22 6 354 353 346 341 332 324 314 307 301 293 304 303 297 294 294 303 312 313 310 305
95 89 87 86 81 78 80 80 85 87 82 75 67 59 59 66 56 32 23 16 19 10 350 342 348 335 319 308 303 299 297 300 306 303 302 304 302 296 298 297 298 299 301
Height
1491 1490 1492 1494 1496 1498 1499 1500 1501 1501 1501 1501 1500 1500 1501 1502 1502 1502 1503 1503 1503 1503 1504 1505 1506 1507 1507 1507 1507 1507 1507 1506 1506 1505 1506 1506 1506 1507 1507 1507 1508 1509 1509
1490 1491 1493 1494 1496 1498 1499 1500 1501 1501 1501 1500 1500 1501 1501 1501 1502 1502 1503 1503 1503 1503 1504 1505 1506 1506 1507 1507 1507 1506 1506 1506 1505 1505 1505 1506 1506 1507 1507 1507 1508 1508 1508
1490 1491 1493 1495 1497 1498 1500 1500 1501 1501 1500 1500 1500 1501 1501 1502 1502 1502 1503 1503 1503 1503 1503 1504 1504 1506 1506 1506 1506 1506 1506 1505 1504 1504 1505 1505 1506 1506 1506 1507 1507 1507 1508
1491 1491 1493 1495 1497 1498 1500 1500 1501 1501 1500 1500 1501 1501 1502 1502 1503 1503 1503 1503 1503 1502 1502 1503 1503 1504 1505 1505 1506 1505 1505 1504 1504 1504 1504 1504 1505 1505 1505 1505 1506 1506 1506
1493 1492 1493 1495 1497 1499 1500 1500 1501 1501 1500 1500 1501 1502 1503 1503 1503 1503 1503 1503 1502 1502 1502 1502 1503 1503 1504 1504 1505 1504 1504 1503 1502 1503 1503 1503 1505 1504 1504 1503 1503 1504 1504
1493 1492 1494 1495 1497 1498 1499 1500 1501 1501 1500 1500 1501 1502 1503 1503 1504 1504 1503 1503 1502 1501 1501 1501 1502 1502 1503 1503 1503 1503 1503 1502 1501 1501 1501 1502 1503 1503 1502 1501 1501 1501 1502
1494 1493 1494 1495 1496 1498 1499 1500 1500 1500 1500 1500 1501 1502 1503 1504 1504 1504 1503 1503 1502 1501 1501 1501 1501 1502 1502 1502 1502 1502 1501 1501 1500 1500 1499 1499 1500 1500 1499 1499 1499 1499 1499
1493 1493 1494 1494 1496 1497 1498 1499 1500 1500 1500 1500 1501 1501 1502 1503 1503 1504 1503 1503 1502 1502 1501 1501 1501 1501 1501 1501 1501 1500 1500 1499 1498 1498 1497 1497 1497 1497 1497 1496 1496 1496 1496
1493 1493 1493 1494 1495 1497 1498 1499 1499 1500 1500 1500 1501 1501 1502 1502 1503 1503 1503 1503 1502 1502 1501 1501 1501 1501 1501 1500 1500 1499 1498 1497 1496 1496 1495 1494 1494 1494 1494 1493 1493 1493 1493
1493 1494 1493 1494 1495 1496 1497 1498 1499 1500 1500 1500 1501 1501 1502 1502 1503 1503 1503 1503 1502 1502 1501 1501 1500 1500 1500 1499 1499 1498 1497 1496 1495 1494 1493 1492 1492 1492 1491 1491 1490 1489 1489
1493 1494 1494 1494 1494 1495 1496 1497 1499 1499 1500 1500 1501 1501 1502 1502 1502 1503 1503 1503 1503 1502 1501 1501 1500 1500 1499 1498 1498 1497 1495 1494 1493 1492 1491 1491 1490 1490 1489 1488 1487 1486 1485
1490 1492 1493 1495 1495 1496 1497 1497 1498 1499 1499 1500 1500 1501 1502 1502 1503 1504 1504 1503 1503 1502 1501 1500 1500 1499 1498 1497 1496 1494 1493 1492 1491 1490 1489 1489 1488 1487 1486 1485 1483 1482 1481
1487 1489 1491 1493 1495 1495 1496 1497 1497 1498 1499 1499 1500 1502 1502 1503 1503 1503 1503 1503 1502 1501 1500 1499 1498 1497 1496 1495 1494 1493 1491 1490 1489 1488 1487 1486 1485 1483 1482 1480 1479 1477 1476
1486 1486 1488 1491 1493 1494 1495 1496 1497 1498 1499 1500 1501 1502 1503 1503 1503 1503 1503 1502 1501 1500 1499 1498 1497 1496 1495 1494 1493 1492 1490 1489 1487 1486 1484 1482 1481 1479 1478 1475 1474 1472 1470
1485 1485 1486 1488 1490 1492 1494 1495 1496 1498 1499 1500 1500 1501 1502 1502 1502 1502 1502 1501 1500 1499 1498 1497 1495 1494 1493 1492 1490 1489 1487 1485 1484 1482 1480 1478 1476 1474 1473 1471 1469 1467 1465
1482 1483 1484 1485 1487 1489 1491 1493 1494 1497 1498 1499 1499 1500 1500 1501 1501 1500 1500 1499 1498 1497 1496 1495 1493 1492 1490 1488 1486 1485 1483 1481 1479 1477 1475 1473 1471 1469 1467 1465 1463 1461 1459
1476 1478 1480 1482 1484 1487 1489 1491 1493 1495 1496 1497 1498 1498 1499 1499 1499 1498 1498 1497 1496 1495 1494 1492 1490 1488 1486 1484 1482 1480 1478 1476 1473 1471 1469 1467 1465 1463 1462 1460 1458 1456 1454
1472 1474 1476 1478 1481 1484 1487 1489 1491 1493 1494 1495 1496 1496 1497 1496 1496 1496 1495 1495 1494 1492 1491 1489 1487 1485 1482 1480 1477 1475 1473 1470 1468 1466 1464 1462 1460 1459 1457 1455 1453 1450 1448
1470 1471 1472 1474 1478 1481 1483 1486 1488 1489 1490 1491 1493 1494 1494 1494 1494 1494 1494 1493 1492 1490 1488 1486 1484 1481 1478 1475 1473 1470 1468 1465 1463 1461 1459 1457 1455 1453 1451 1449 1446 1444 1442
1469 1469 1470 1472 1475 1478 1480 1482 1484 1486 1488 1490 1492 1493 1493 1493 1493 1493 1492 1491 1490 1488 1486 1483 1481 1478 1476 1472 1468 1465 1462 1460 1458 1457 1454 1452 1450 1448 1445 1443 1440 1438 1435
1468 1469 1470 1471 1474 1476 1478 1480 1483 1485 1487 1489 1491 1492 1493 1493 1493 1492 1491 1490 1488 1486 1483 1481 1478 1475 1472 1468 1464 1458 1456 1455 1453 1451 1450 1448 1445 1442 1440 1437 1434 1431 1428
1468 1469 1471 1472 1474 1476 1478 1480 1483 1485 1488 1490 1491 1492 1492 1492 1492 1490 1489 1488 1486 1483 1481 1478 1475 1472 1470 1467 1463 1457 1452 1449 1448 1447 1444 1442 1439 1437 1433 1430 1427 1424 1421
1468 1469 1471 1472 1474 1477 1479 1481 1484 1486 1488 1490 1491 1492 1492 1491 1490 1489 1487 1485 1483 1480 1478 1475 1473 1470 1467 1466 1464 1461 1456 1449 1442 1438 1439 1436 1433 1430 1427 1424 1420 1417 1413
1468 1470 1472 1474 1476 1479 1481 1483 1485 1486 1488 1490 1491 1491 1491 1490 1488 1487 1485 1482 1480 1478 1475 1473 1471 1468 1466 1463 1461 1460 1458 1452 1444 1433 1431 1429 1427 1423 1420 1416 1413 1408 1405
1469 1471 1473 1475 1477 1480 1482 1484 1486 1487 1488 1490 1490 1490 1489 1488 1486 1484 1482 1480 1478 1475 1473 1471 1468 1466 1463 1460 1458 1454 1451 1448 1443 1436 1424 1419 1417 1416 1413 1409 1405 1401 1397
1469 1472 1474 1476 1478 1481 1483 1485 1486 1487 1488 1489 1489 1489 1488 1486 1484 1482 1480 1477 1475 1473 1470 1468 1465 1463 1460 1457 1454 1450 1447 1443 1438 1433 1423 1413 1408 1406 1404 1401 1397 1394 1390